EW8242 Weather Reports


Display with metric or nautical units.
time (UTC)temp
F
wind
direction
speed
MPH
gust
MPH
rain 1hr
in
rain 24hr
in
rain mn
in
humidity
%
barometer
mb
20200221034521 33 32 0.0 4.0 0.00 0.00 0.00 61 1015.1
20200221033621 33 45 2.0 4.0 0.00 0.00 0.00 61 1014.8
20200221032721 34 45 2.0 4.0 0.00 0.00 0.00 61 1015.0
20200221031821 33 46 2.0 4.0 0.00 0.00 0.00 61 1015.1
20200221030921 34 337 2.0 3.0 0.00 0.00 0.00 60 1015.4
20200221030021 34 40 0.0 3.0 0.00 0.00 0.00 59 1015.3
20200221025135 34 45 2.0 5.0 0.00 0.00 0.00 58 1015.4
20200221024221 34 46 0.0 2.0 0.00 0.00 0.00 59 1015.4
20200221023321 34 45 0.0 2.0 0.00 0.00 0.00 57 1015.5
20200221022421 35 45 2.0 5.0 0.00 0.00 0.00 56 1015.2
20200221021521 34 49 3.0 4.0 0.00 0.00 0.00 56 1015.3
20200221020621 35 41 0.0 3.0 0.00 0.00 0.00 55 1015.1
20200221015721 35 37 2.0 5.0 0.00 0.00 0.00 56 1015.2
20200221014822 34 57 4.0 5.0 0.00 0.00 0.00 59 1015.3
20200221013921 34 56 2.0 4.0 0.00 0.00 0.00 58 1015.4
20200221013021 35 37 0.0 5.0 0.00 0.00 0.00 57 1015.3
20200221012121 34 38 2.0 3.0 0.00 0.00 0.00 56 1015.4
20200221011221 36 49 0.0 4.0 0.00 0.00 0.00 53 1015.4
20200221010321 35 44 2.0 4.0 0.00 0.00 0.00 58 1015.6
20200221005421 34 43 2.0 4.0 0.00 0.00 0.00 58 1015.7
20200221004521 35 46 2.0 3.0 0.00 0.00 0.00 54 1015.6
20200221003621 36 39 0.0 6.0 0.00 0.00 0.00 50 1016.1
20200221002721 37 31 3.0 7.0 0.00 0.00 0.00 52 1015.8
20200221001821 35 28 2.0 5.0 0.00 0.00 0.00 57 1015.6
20200221000921 34 0 0.0 0.0 0.00 0.00 0.00 57 1015.9
20200221000021 35 90 0.0 2.0 0.00 0.00 0.00 55 1015.8
20200220235121 36 48 0.0 4.0 0.00 0.00 0.00 55 1016.0
20200220234221 35 57 3.0 4.0 0.00 0.00 0.00 56 1016.1
20200220233321 35 45 0.0 2.0 0.00 0.00 0.00 54 1016.3
20200220232421 36 37 2.0 5.0 0.00 0.00 0.00 53 1016.3
20200220231520 35 36 3.0 5.0 0.00 0.00 0.00 54 1016.2
20200220230621 36 32 2.0 4.0 0.00 0.00 0.00 53 1016.7
20200220225720 36 42 2.0 4.0 0.00 0.00 0.00 54 1016.9
20200220224821 35 42 3.0 4.0 0.00 0.00 0.00 55 1016.6
20200220223920 36 43 2.0 3.0 0.00 0.00 0.00 55 1016.4
20200220223020 35 45 2.0 2.0 0.00 0.00 0.00 56 1016.5
20200220222120 35 42 2.0 4.0 0.00 0.00 0.00 54 1016.4
20200220221220 36 43 2.0 4.0 0.00 0.00 0.00 53 1016.2
20200220220320 36 41 3.0 5.0 0.00 0.00 0.00 54 1016.4
20200220215420 35 49 2.0 4.0 0.00 0.00 0.00 54 1016.2
20200220214520 35 46 2.0 4.0 0.00 0.00 0.00 54 1016.4
20200220213620 36 41 0.0 5.0 0.00 0.00 0.00 52 1016.3
20200220212720 36 46 2.0 3.0 0.00 0.00 0.00 51 1015.9
20200220211820 37 45 2.0 3.0 0.00 0.00 0.00 51 1016.4
20200220210920 36 45 0.0 2.0 0.00 0.00 0.00 50 1016.1
20200220210020 37 45 0.0 2.0 0.00 0.00 0.00 49 1016.0
20200220205120 38 46 2.0 4.0 0.00 0.00 0.00 53 1016.0
20200220204220 39 42 2.0 5.0 0.00 0.00 0.00 52 1016.1
20200220203321 39 36 2.0 6.0 0.00 0.00 0.00 51 1016.1
20200220202420 39 45 2.0 4.0 0.00 0.00 0.00 52 1016.1
20200220201520 39 45 3.0 4.0 0.00 0.00 0.00 51 1016.1
20200220200620 39 43 2.0 4.0 0.00 0.00 0.00 51 1016.0
20200220195720 40 43 2.0 5.0 0.00 0.00 0.00 50 1016.1
20200220194820 40 45 2.0 4.0 0.00 0.00 0.00 50 1016.1
20200220193921 40 45 2.0 4.0 0.00 0.00 0.00 51 1015.9
20200220193020 40 43 2.0 4.0 0.00 0.00 0.00 50 1016.3
20200220192120 41 35 2.0 5.0 0.00 0.00 0.00 46 1016.3
20200220191220 40 36 4.0 6.0 0.00 0.00 0.00 50 1016.2
20200220190320 41 46 0.0 5.0 0.00 0.00 0.00 45 1016.4
20200220185420 42 41 2.0 4.0 0.00 0.00 0.00 46 1016.3
20200220184520 42 48 2.0 7.0 0.00 0.00 0.00 45 1016.4
20200220183620 42 37 4.0 5.0 0.00 0.00 0.00 46 1016.3
20200220182720 43 37 2.0 5.0 0.00 0.00 0.00 42 1016.3
20200220181820 42 45 2.0 3.0 0.00 0.00 0.00 44 1016.2
20200220180920 43 45 1.0 2.0 0.00 0.00 0.00 42 1016.1
20200220180020 44 0 0.0 0.0 0.00 0.00 0.00 40 1016.1
20200220175121 45 0 0.0 0.0 0.00 0.00 0.00 36 1016.2
20200220174220 47 0 0.0 0.0 0.00 0.00 0.00 34 1015.8
20200220173320 47 0 0.0 0.0 0.00 0.00 0.00 33 1015.8
20200220172420 49 98 0.0 2.0 0.00 0.00 0.00 31 1015.6
20200220171520 50 102 2.0 4.0 0.00 0.00 0.00 31 1015.5
20200220170620 50 90 2.0 4.0 0.00 0.00 0.00 28 1015.5
20200220165720 51 105 0.0 5.0 0.00 0.00 0.00 28 1015.5
20200220164820 51 95 2.0 4.0 0.00 0.00 0.00 27 1015.6
20200220163921 52 102 0.0 3.0 0.00 0.00 0.00 25 1015.6
20200220163022 54 98 1.0 5.0 0.00 0.00 0.00 23 1015.7
20200220162123 55 100 3.0 5.0 0.00 0.00 0.00 22 1015.7
20200220161220 56 90 0.0 4.0 0.00 0.00 0.00 23 1015.7
20200220160321 58 69 1.0 4.0 0.00 0.00 0.00 22 1015.7
20200220155420 56 94 0.0 4.0 0.00 0.00 0.00 24 1015.7
20200220154520 55 103 2.0 4.0 0.00 0.00 0.00 23 1015.8
20200220153620 55 43 2.0 4.0 0.00 0.00 0.00 23 1015.8
20200220152720 55 84 0.0 5.0 0.00 0.00 0.00 22 1016.0
20200220151819 56 101 2.0 5.0 0.00 0.00 0.00 25 1016.0
20200220150919 53 73 2.0 3.0 0.00 0.00 0.00 26 1016.2
20200220150020 53 102 0.0 4.0 0.00 0.00 0.00 26 1016.2
20200220145119 53 158 0.0 5.0 0.00 0.00 0.00 25 1016.2
20200220144220 53 142 0.0 4.0 0.00 0.00 0.00 24 1016.2
20200220143320 53 133 1.0 6.0 0.00 0.00 0.00 23 1016.1
20200220142419 54 133 2.0 4.0 0.00 0.00 0.00 22 1015.8
20200220141520 54 170 2.0 5.0 0.00 0.00 0.00 21 1016.0
20200220140619 54 131 2.0 4.0 0.00 0.00 0.00 20 1015.9
20200220135719 55 123 0.0 3.0 0.00 0.00 0.00 20 1016.1
20200220134819 56 102 1.0 3.0 0.00 0.00 0.00 22 1015.9
20200220133919 55 78 0.0 4.0 0.00 0.00 0.00 23 1016.0
20200220133019 54 162 2.0 4.0 0.00 0.00 0.00 20 1016.2
20200220132119 54 153 2.0 5.0 0.00 0.00 0.00 21 1016.1
20200220131219 54 184 2.0 4.0 0.00 0.00 0.00 20 1016.1
20200220130320 53 108 0.0 6.0 0.00 0.00 0.00 22 1016.4
20200220125419 54 116 2.0 6.0 0.00 0.00 0.00 20 1016.5
20200220124519 53 111 3.0 6.0 0.00 0.00 0.00 22 1016.4
20200220123619 53 204 4.0 7.0 0.00 0.00 0.00 22 1016.6
20200220122719 53 166 4.0 5.0 0.00 0.00 0.00 22 1016.6
20200220121819 53 216 2.0 9.0 0.00 0.00 0.00 21 1016.7
20200220120919 53 225 1.0 8.0 0.00 0.00 0.00 22 1016.9
20200220120019 53 251 4.0 8.0 0.00 0.00 0.00 24 1017.1
20200220115119 54 269 4.0 8.0 0.00 0.00 0.00 22 1017.2
20200220114219 54 232 2.0 5.0 0.00 0.00 0.00 22 1017.4
20200220113319 53 218 3.0 5.0 0.00 0.00 0.00 25 1017.2
20200220112419 53 252 2.0 4.0 0.00 0.00 0.00 27 1017.4
20200220111518 53 237 2.0 4.0 0.00 0.00 0.00 27 1017.6
20200220110618 53 262 2.0 4.0 0.00 0.00 0.00 29 1017.9
20200220105718 53 204 2.0 4.0 0.00 0.00 0.00 29 1018.0
20200220104818 51 233 1.0 4.0 0.00 0.00 0.00 30 1017.8
20200220103918 51 239 2.0 5.0 0.00 0.00 0.00 31 1018.1
20200220103018 50 230 3.0 5.0 0.00 0.00 0.00 32 1018.0
20200220102118 49 247 2.0 5.0 0.00 0.00 0.00 32 1018.1
20200220101218 49 249 4.0 5.0 0.00 0.00 0.00 33 1018.0
20200220100318 48 262 3.0 7.0 0.00 0.00 0.00 35 1018.2
20200220095418 48 249 3.0 7.0 0.00 0.00 0.00 33 1018.0
20200220094518 48 281 2.0 4.0 0.00 0.00 0.00 34 1018.0
20200220093618 49 270 2.0 5.0 0.00 0.00 0.00 32 1018.1
20200220092718 52 267 0.0 3.0 0.00 0.00 0.00 29 1018.3
20200220090918 47 46 2.0 2.0 0.00 0.00 0.00 36 1018.2
20200220090018 45 45 0.0 3.0 0.00 0.00 0.00 40 1018.4
20200220085118 43 24 2.0 3.0 0.00 0.00 0.00 43 1018.2
20200220084219 43 0 0.0 0.0 0.00 0.00 0.00 41 1018.1
20200220083318 43 0 0.0 0.0 0.00 0.00 0.00 44 1018.1
20200220082418 42 0 0.0 0.0 0.00 0.00 0.00 46 1018.1
20200220081518 41 68 0.0 2.0 0.00 0.00 0.00 48 1018.1
20200220080618 40 44 0.0 2.0 0.00 0.00 0.00 48 1018.2
20200220075718 40 39 2.0 3.0 0.00 0.00 0.00 51 1018.1
20200220074818 38 45 2.0 2.0 0.00 0.00 0.00 52 1018.2
20200220073918 38 45 0.0 2.0 0.00 0.00 0.00 51 1018.2
20200220073018 38 45 2.0 3.0 0.00 0.00 0.00 52 1018.1
20200220072118 37 44 2.0 4.0 0.00 0.00 0.00 50 1018.0
20200220071218 38 41 2.0 5.0 0.00 0.00 0.00 52 1018.0
20200220070318 35 45 2.0 3.0 0.00 0.00 0.00 52 1017.8
20200220065418 35 46 2.0 3.0 0.00 0.00 0.00 54 1017.8
20200220064518 33 0 0.0 0.0 0.00 0.00 0.00 56 1017.6
20200220063618 33 43 0.0 3.0 0.00 0.00 0.00 57 1017.6
20200220062717 33 42 2.0 3.0 0.00 0.00 0.00 58 1017.3
20200220061817 33 0 0.0 0.0 0.00 0.00 0.00 57 1017.4
20200220060918 33 45 0.0 2.0 0.00 0.00 0.00 56 1017.3
20200220060017 33 46 1.0 3.0 0.00 0.00 0.00 57 1017.1
20200220055117 33 45 2.0 2.0 0.00 0.00 0.00 57 1017.1
20200220054218 33 52 2.0 3.0 0.00 0.00 0.00 57 1016.9
20200220053318 33 46 2.0 3.0 0.00 0.00 0.00 57 1016.9
20200220052417 32 45 0.0 2.0 0.00 0.00 0.00 54 1016.8
20200220051517 33 45 1.0 4.0 0.00 0.00 0.00 54 1016.7
20200220050617 33 44 2.0 4.0 0.00 0.00 0.00 52 1016.8
20200220045717 34 43 2.0 3.0 0.00 0.00 0.00 51 1016.8
20200220044817 34 53 2.0 3.0 0.00 0.00 0.00 50 1016.5
20200220043917 35 44 2.0 4.0 0.00 0.00 0.00 50 1016.4
20200220043017 35 45 2.0 4.0 0.00 0.00 0.00 49 1016.3
20200220042117 34 45 2.0 4.0 0.00 0.00 0.00 49 1016.3
20200220041217 35 44 2.0 3.0 0.00 0.00 0.00 49 1016.5
20200220040317 35 42 2.0 3.0 0.00 0.00 0.00 48 1016.1
20200220035417 35 43 2.0 4.0 0.00 0.00 0.00 47 1016.2